Showing default

ELEKTRON 1, 746

Orbit data source: Space-Track

ELEKTRON 1, 746 is a payload satellite owned by OKB-1 (CIS) that was launched on Thu, 30 Jan 1964 UTC via a VOSTOK 8K72 launch vehicle from the Tyuratam Missile And Space Complex (TTMTR). Payload-class satellites include a variety of spacecraft equipped with specific instruments for various scientific and technological missions. These include communications satellites like Starlink; space stations such as the ISS; scientific satellites like the Hubble; Earth observation satellites from companies like Planet Labs, Umbra, and HawkEye 360; GPS; miniature CubeSats for education and research; and military/defense satellites.

Loading next visibility...
Identifier
746, 1964-006A
Orbit
Active
Country
Flag of CISCIS
Related business
Manufacturer
OKB-1
Mission
Civil Science
Bus & Motor
OBJECT D, SRM
Mass
350 kg wet, 350 kg dry
Launch date (UTC)
1964-01-30 (62 years ago)
Launch vehicle
VOSTOK 8K72
Launch site
Tyuratam Missile And Space Complex (TTMTR)
Object type
Payload
Rocket body
Debris
Shape & HBR
Cyl + 6 Pan, 2.0 m
Radar Cross Section
2.718 m², Large (>1 m²)

Expand to show TLE details & history
Last TLE update: 21 hours ago

TLE from 21 hours ago
0 ELEKTRON 1
1 00746U 64006A   25242.13233513  .00000828  00000-0  22752-3 0  9998
2 00746  60.8636 222.5252 3004423 152.4178 227.4940  9.09821829 40743
Epoch: 2025-08-30T03:10Z
TLE epoch observation values (Epoch: 2025-08-30T03:10:33.755Z)
Latitude
-0.00003°
Longitude
-163.68648°
Altitude
5,638.356 km
Speed
5.023 km/s
True Right ascension
14h 50m 06s
True Declination
0° 00' 00"
Sunlit
Object was in daylight at epoch
Visualization orbit readout
Latitude
Unknown
Longitude
Unknown
Altitude
Unknown
Speed
Unknown
Apparent Right ascension
Unknown
Apparent Declination
Unknown
Sunlit
N/A
Visualization observer readout
Local Sidereal Time
15:58:59
Azimuth
Unknown
Elevation
Unknown
Doppler factor
Unknown
Orbital elements
Apogee altitude
6,225.283 km
Perigee altitude
401.725 km
Semi-major axis
9,691.641 km
Eccentricity
0.30044
Inclination
60.8636°
RAAN
222.5252°
Arg. of periapsis
152.4178°
True anomaly
207.65989°
Mean anomaly
227.494°
Eccentric anomaly
217.10833°
Mean motion
2.27482 °/min
Orbital period
158.25 mins
BSTAR
0.00022752
Loading maneuver chart data...
Computing Atmospheric mass density...

Documentation

Showing up to 5 results
|